Dewpoint
46 47 46 47 48 48 48 48 48 48 48 48 48 48 48 49 49 49 49 49 49 49 49 50 51 51 52 52 53 54 54 55 55 55 55 54 54 53 53 52 52 52 52 52 52 52 52 52 53 53 53 53 53 53 54 54 54 54 55 55 55 56 56 56 56 55 55 55 54 54 53 53 52 52 51 51 50 50 50 49 49 49 48 48 48 49
45 46 46 46 47 48 48 48 48 48 49 48 48 48 48 48 48 48 48 48 49 49 49 50 50 51 51 52 53 54 54 55 55 55 54 54 53 53 53 52 52 52 52 52 52 52 52 52 52 53 53 53 53 53 53 53 53 54 54 54 55 55 55 55 55 55 54 54 53 53 52 52 51 51 51 50 50 50 49 49 48 48 48 48 48 48
45 46 46 46 47 48 48 48 48 48 49 48 48 48 48 48 48 48 47 48 48 48 48 49 50 51 51 52 53 54 54 54 55 55 54 54 53 53 53 52 52 52 52 52 52 52 52 52 52 52 52 52 52 52 52 53 53 53 53 54 54 54 55 55 54 54 53 52 52 52 51 51 50 50 50 50 49 49 49 48 48 48 47 47 47 47
46 46 47 47 47 48 48 48 47 47 48 48 48 48 48 48 48 47 45 45 46 47 47 48 50 51 51 52 53 54 54 54 54 54 54 54 53 53 52 52 52 52 52 51 51 51 52 52 52 52 52 52 52 52 52 52 52 52 52 52 52 53 53 53 52 52 52 51 50 50 49 49 49 49 49 49 48 48 48 47 47 46 46 46 46 46
46 47 47 47 48 48 48 48 47 47 47 47 47 47 47 47 46 44 43 44 45 45 46 47 49 50 51 52 53 53 54 54 54 54 54 53 53 53 52 52 52 52 51 51 51 51 52 52 52 51 51 51 51 50 50 50 50 50 50 50 50 50 50 50 49 49 48 48 48 48 48 48 48 48 48 47 47 47 46 45 45 45 44 44 45 45
47 47 47 48 48 48 47 47 47 47 46 45 45 45 44 44 43 43 43 43 44 44 45 46 47 49 50 51 52 53 54 54 54 54 54 53 53 52 52 52 52 52 52 51 51 51 51 51 51 51 50 50 49 49 49 48 48 48 48 48 48 48 47 47 47 46 46 46 46 45 45 45 45 45 45 45 45 45 44 44 44 43 43 43 44 44
48 47 47 47 47 45 44 45 46 47 46 44 43 42 42 41 41 42 42 42 43 43 43 44 46 48 49 50 51 52 53 53 53 53 53 53 53 52 52 52 52 52 52 52 51 51 51 51 50 50 49 49 48 48 48 48 47 47 47 46 46 46 45 45 44 44 43 43 43 43 43 43 43 43 43 43 43 43 43 43 43 43 43 43 43 43
46 45 45 46 44 42 41 43 45 46 46 45 43 42 41 40 40 40 40 41 41 42 43 44 45 46 48 49 51 52 52 53 53 53 53 53 52 52 52 52 52 52 52 51 51 51 50 50 49 49 48 48 48 47 47 46 46 46 45 45 45 44 44 43 43 42 42 41 41 41 41 41 41 41 41 41 41 41 41 41 42 42 42 42 43 43
46 44 44 44 43 42 41 42 43 45 46 46 45 43 43 41 40 40 40 40 41 41 42 43 45 46 47 48 50 51 52 52 52 52 52 52 52 52 52 52 52 52 51 51 51 50 50 49 49 48 48 47 47 46 46 45 45 44 44 44 43 43 43 42 42 41 40 40 39 39 39 39 39 39 39 38 38 39 39 39 40 41 42 42 42 43
48 46 45 44 43 43 43 43 43 43 45 45 45 45 44 43 42 41 40 40 40 40 40 43 44 46 46 47 48 50 51 52 52 52 52 51 51 52 52 52 51 51 51 51 50 50 49 49 48 48 47 47 46 45 45 44 44 43 43 43 43 42 42 41 41 40 40 39 39 39 38 37 37 36 36 36 36 36 37 38 39 40 41 42 42 42
47 47 46 44 43 43 43 42 41 41 43 44 44 43 43 43 43 43 41 41 40 39 39 41 43 45 46 46 47 48 50 50 50 51 51 51 51 51 51 50 50 50 50 50 49 49 48 48 48 47 47 46 45 44 43 43 43 42 42 42 41 41 40 40 40 40 39 39 39 38 37 36 36 35 34 34 34 35 36 37 38 39 40 41 41 42
46 46 46 43 42 41 41 39 39 39 42 43 43 43 42 43 43 43 43 42 41 40 40 40 40 41 43 44 46 47 48 48 48 48 49 49 50 50 49 49 49 49 50 49 49 48 48 48 47 47 46 45 44 43 43 42 41 41 40 40 39 39 39 39 39 39 39 38 38 38 37 36 35 34 34 34 34 34 35 36 37 38 39 40 40 41
45 45 45 43 43 42 41 39 38 39 41 42 43 43 43 42 42 43 43 42 42 41 41 39 39 39 38 39 42 45 47 47 47 47 47 48 48 48 48 48 48 48 48 48 48 48 48 47 47 46 45 44 43 42 41 40 39 39 39 38 38 37 37 37 37 37 37 37 37 37 37 36 35 34 34 33 33 33 34 35 36 37 38 39 39 40
44 44 44 43 43 43 42 40 40 40 41 43 43 43 42 42 41 42 42 41 40 40 40 40 39 39 37 38 39 41 45 46 46 45 44 44 44 45 46 46 46 45 46 45 46 46 47 46 45 45 44 43 42 41 39 39 38 37 37 36 36 35 35 35 35 36 36 36 37 37 37 36 35 35 34 33 33 33 33 34 36 37 38 38 39 39
43 43 43 43 43 43 43 42 41 42 42 43 43 43 42 41 41 41 41 40 39 38 38 39 39 38 38 37 37 38 42 44 45 44 43 40 40 41 43 44 44 43 43 43 44 45 46 45 44 43 42 41 40 39 38 37 36 35 35 35 34 34 34 34 35 35 35 36 36 36 36 36 36 35 34 34 33 33 33 34 35 36 37 38 39 39
43 43 43 43 43 43 43 43 42 42 43 43 43 43 42 41 41 41 41 41 39 38 38 38 38 39 39 38 37 36 39 43 44 43 42 39 37 37 38 43 43 41 41 42 42 42 43 43 42 40 39 39 39 38 37 36 35 35 34 34 34 34 34 34 34 34 35 35 35 35 36 36 36 35 35 34 33 33 33 34 35 36 37 38 38 39
43 43 43 43 43 43 43 43 43 43 43 43 43 43 42 42 41 41 41 41 39 39 39 39 39 39 39 39 38 38 37 40 43 43 42 39 37 35 34 41 42 41 40 40 40 39 40 40 39 39 38 38 38 37 36 35 35 34 34 34 34 34 34 34 34 34 34 34 35 35 35 36 36 35 35 34 34 33 33 34 35 36 37 38 38 38
43 43 43 43 43 43 43 43 43 43 43 42 42 42 42 42 41 41 41 41 40 39 39 40 40 40 40 40 40 39 38 40 42 43 41 39 36 34 33 37 40 41 39 39 38 38 39 38 38 37 38 38 37 36 35 35 34 34 34 34 35 35 35 34 34 34 34 34 34 35 35 36 36 35 35 34 34 33 33 34 35 36 37 38 38 39
43 43 43 43 43 43 43 43 43 43 42 42 42 42 41 41 41 41 41 41 40 40 40 40 40 41 41 40 39 39 39 40 42 42 41 39 36 34 33 36 39 40 39 39 38 37 37 38 38 38 39 38 37 36 35 35 34 34 34 34 35 35 35 35 34 34 34 34 34 35 35 35 36 35 35 34 34 34 34 34 35 36 37 38 38 39
43 43 43 43 43 43 43 43 43 43 43 43 42 42 41 41 40 40 40 41 41 41 41 40 40 40 40 37 36 37 39 40 41 41 41 39 36 33 32 35 38 39 38 38 36 35 36 37 38 39 39 39 38 36 35 35 34 34 34 34 35 35 35 35 35 34 34 34 34 35 35 35 36 35 35 34 34 34 34 35 36 37 37 38 38 39
43 43 43 43 43 43 43 43 43 43 43 43 43 42 41 40 40 40 40 40 40 40 40 40 41 40 40 37 37 39 40 40 41 41 41 39 35 33 31 34 37 39 38 36 34 34 35 36 38 39 40 39 38 37 36 35 34 34 34 35 35 35 35 35 35 35 34 34 34 35 35 35 36 35 35 35 35 35 35 35 36 37 37 37 38 38
43 43 43 43 43 43 43 44 44 44 43 43 42 42 41 41 40 40 40 40 40 40 40 40 39 37 35 35 37 39 40 41 41 41 40 38 36 34 31 32 35 38 38 35 33 32 34 35 37 39 40 40 39 38 36 35 34 34 34 35 35 36 36 35 35 35 35 35 34 35 35 35 36 35 35 35 35 35 35 35 36 36 36 37 37 37
44 44 43 43 43 44 44 44 44 44 44 43 42 42 41 41 40 40 40 40 40 39 38 34 32 32 32 34 36 39 40 41 41 41 40 38 36 34 31 32 34 36 37 34 32 31 32 34 36 38 40 40 39 38 37 35 35 34 34 35 35 36 36 36 35 35 35 35 35 35 35 35 35 35 35 35 35 35 35 35 35 36 36 36 36 37
45 45 44 45 45 44 44 44 43 43 43 43 43 43 41 41 41 41 41 41 40 38 35 33 32 33 33 34 36 37 39 40 41 41 40 39 37 34 32 32 34 35 35 33 32 31 32 33 34 36 39 39 39 38 37 36 35 34 34 35 36 36 36 36 36 35 35 35 35 35 35 35 35 35 35 35 35 35 35 35 35 35 35 35 36 36
46 45 45 45 45 45 45 44 44 44 43 43 43 43 42 42 42 42 40 40 39 37 35 35 35 34 32 34 36 36 38 39 39 40 40 39 36 33 32 33 34 34 34 30 30 30 32 33 34 34 36 38 38 38 37 36 35 34 35 35 36 36 36 36 36 36 35 35 35 34 34 35 35 35 35 35 35 35 35 35 35 35 35 35 35 36
46 46 46 45 45 46 46 46 46 45 44 44 43 43 43 42 41 40 39 38 37 36 36 36 36 35 33 33 34 35 36 36 37 38 39 38 34 32 31 33 34 33 31 29 29 31 32 33 33 32 33 34 36 37 36 35 35 35 35 35 36 36 36 36 36 36 35 35 35 34 34 35 35 35 35 35 35 35 35 35 35 35 35 35 35 35
46 46 46 46 46 46 46 46 46 46 46 45 44 43 43 42 41 39 38 38 37 37 36 36 36 36 34 33 34 35 35 36 35 35 36 36 34 32 31 32 33 32 30 28 29 30 32 33 32 32 32 32 34 36 36 35 35 35 35 36 36 36 36 36 36 36 35 35 34 34 34 35 35 35 35 36 36 36 36 35 35 35 35 36 35 35
45 45 45 45 45 45 46 46 46 46 46 46 45 45 44 42 40 39 38 38 38 37 37 36 36 36 34 33 34 34 34 36 35 34 34 36 34 32 31 32 32 31 30 29 30 31 33 32 31 31 31 30 32 34 35 35 35 35 35 36 36 36 36 36 36 36 35 35 34 34 34 35 35 36 36 36 36 36 36 35 35 35 36 35 34 33
44 44 44 45 45 45 45 46 46 46 47 46 46 45 44 43 41 40 39 39 38 37 37 37 37 36 34 34 33 32 34 35 36 35 34 36 35 33 31 32 32 31 30 29 29 30 30 29 29 28 29 31 31 32 33 34 35 35 36 36 36 36 36 36 36 36 35 35 34 34 35 35 36 36 36 36 36 36 35 35 35 35 35 33 31 30
43 43 43 44 44 45 45 45 46 46 47 46 46 45 45 43 42 41 40 39 38 37 37 37 37 36 34 33 31 31 32 34 36 36 35 36 34 32 30 31 32 31 30 29 28 27 27 27 27 27 28 30 31 30 29 31 33 34 34 35 36 36 36 36 35 35 35 35 34 34 35 35 36 36 36 36 35 35 35 35 35 35 32 30 30 29
42 42 43 43 43 44 44 44 45 46 46 46 46 46 45 44 43 42 41 40 39 38 38 38 37 36 34 33 32 31 32 34 35 36 36 37 35 32 30 31 31 31 31 30 29 28 27 27 27 27 28 29 30 29 28 28 29 30 31 33 34 35 36 35 35 35 35 34 34 34 35 35 36 36 36 35 35 35 35 36 35 34 30 29 29 28
41 41 42 42 43 43 43 44 44 44 45 45 46 45 45 44 43 42 42 40 39 39 39 38 38 37 35 34 33 33 33 33 35 37 37 37 34 32 31 31 31 30 30 30 30 30 29 27 27 26 26 27 28 28 29 28 27 26 29 31 32 33 35 35 35 35 34 34 34 34 35 36 36 36 35 35 35 35 35 36 35 33 30 28 28 28
40 41 41 42 42 42 43 43 43 43 43 44 44 44 44 44 43 43 42 41 40 39 39 39 38 37 35 35 34 34 32 33 35 37 38 36 34 31 31 31 30 30 29 27 27 27 28 27 26 25 25 26 27 27 28 28 27 26 27 29 30 30 34 35 35 34 34 34 34 35 35 35 36 35 35 35 35 35 35 36 35 34 31 28 28 28
40 40 40 41 41 41 42 42 42 43 43 43 43 44 43 43 43 42 42 41 40 40 40 39 38 37 36 35 35 34 30 33 35 37 38 36 33 31 31 31 30 29 28 26 24 23 24 25 25 25 25 25 26 27 27 26 27 26 25 27 28 28 30 34 34 34 34 34 34 34 34 35 35 35 35 35 35 35 35 35 35 34 33 30 28 27
39 39 40 40 40 40 41 41 42 42 42 42 43 43 43 43 42 42 41 41 40 40 40 40 39 38 37 36 35 34 30 32 35 37 38 35 33 31 31 30 30 29 29 27 25 23 22 23 25 26 25 25 26 26 26 24 24 24 23 26 27 27 28 31 33 34 34 33 33 33 33 34 35 35 35 35 35 35 35 35 35 34 34 33 31 29
39 39 39 39 39 39 40 40 41 41 41 42 42 42 42 42 41 41 40 40 39 39 39 39 39 38 38 37 36 34 32 33 35 37 38 36 34 32 31 31 31 30 30 29 27 26 24 25 25 27 27 26 25 25 25 23 23 23 24 25 26 26 26 29 31 32 32 32 32 31 30 32 33 34 35 36 36 36 35 35 34 34 34 34 33 32
38 38 38 38 39 39 39 39 40 40 41 40 40 41 41 41 40 39 39 39 39 38 38 38 37 37 36 35 35 35 34 34 35 37 38 36 34 33 33 32 32 32 31 30 29 28 26 26 26 26 27 25 25 25 25 24 24 24 25 25 25 25 25 27 30 32 31 32 31 30 30 31 33 34 36 36 36 36 36 35 34 34 34 34 33 33
37 37 38 38 38 38 39 39 39 39 40 39 39 39 39 38 38 37 36 36 36 36 36 34 34 34 35 35 35 34 35 35 36 36 37 35 34 34 34 33 32 32 32 32 30 29 27 27 26 26 26 25 25 25 25 25 25 25 25 25 25 25 25 26 30 32 31 31 31 31 32 32 32 32 33 33 33 32 31 31 33 34 34 33 33 33
37 37 37 37 38 38 38 38 39 39 38 37 36 35 34 34 34 34 34 34 34 34 34 33 32 32 33 34 35 35 35 35 35 35 35 35 34 34 34 33 32 32 33 33 32 30 29 28 27 26 26 25 24 24 25 25 25 25 24 25 25 25 25 26 30 32 32 32 32 32 31 30 28 28 27 27 27 27 27 27 30 31 30 30 30 32
36 36 37 37 37 38 38 38 37 36 35 34 34 34 33 33 33 33 32 32 32 31 31 30 30 30 31 33 34 35 35 35 35 35 35 34 34 34 34 33 32 32 32 32 31 31 30 29 29 28 27 26 25 24 24 24 24 25 25 24 24 24 25 26 29 31 32 31 31 30 29 26 25 26 25 25 25 25 25 25 26 28 28 26 25 26
36 36 36 37 37 38 38 37 35 34 33 32 32 32 32 31 31 30 30 30 30 30 30 30 29 29 28 27 28 29 32 34 35 35 34 34 34 34 34 34 32 31 31 31 31 30 30 30 29 28 27 26 25 25 24 23 24 25 25 23 22 23 26 28 29 29 30 30 30 29 28 26 26 26 25 25 25 23 24 23 23 25 25 22 21 22
36 36 36 36 36 35 34 34 33 33 32 32 31 31 31 31 31 30 30 29 29 29 29 30 29 28 26 26 25 25 25 27 30 32 33 33 33 34 34 34 33 31 31 30 30 30 30 30 29 27 26 26 25 24 23 23 24 24 24 22 22 24 26 28 27 26 30 30 29 28 28 26 25 25 25 25 23 22 24 22 24 25 25 21 19 19
36 36 36 35 34 34 33 33 32 32 31 31 31 31 31 31 31 31 30 30 29 29 30 30 30 29 27 25 25 24 24 23 25 27 30 30 32 33 33 33 32 31 31 30 30 30 30 30 28 27 26 25 25 24 22 23 23 24 24 23 23 24 24 26 25 25 28 28 28 27 27 25 24 24 24 24 23 22 22 25 28 29 28 22 19 18
36 36 35 34 33 32 32 31 30 30 30 30 30 30 30 31 32 32 31 30 30 30 30 30 30 29 27 25 25 24 23 24 25 25 27 29 30 31 32 32 31 31 31 30 30 29 28 27 26 25 25 25 24 23 22 23 23 24 24 25 25 24 24 25 26 26 26 27 27 26 25 24 23 23 23 22 22 21 21 22 23 24 27 22 20 18
35 34 34 33 32 31 30 30 30 30 30 30 30 30 30 31 32 32 31 30 30 30 30 30 30 29 26 25 24 23 23 24 24 25 26 30 32 32 31 31 31 31 31 31 30 29 27 25 24 23 23 23 23 22 22 23 24 25 25 26 26 25 24 25 26 26 26 26 25 24 22 23 22 22 21 21 20 19 19 20 21 21 22 21 20 19
34 33 32 31 30 30 30 30 30 29 29 29 29 29 30 30 31 31 31 30 30 29 29 30 30 28 26 25 24 24 23 23 24 24 24 25 27 29 30 30 30 30 30 30 29 28 27 25 24 22 22 21 21 21 22 23 24 25 26 27 26 25 24 25 25 26 26 25 24 22 21 21 22 22 21 21 20 18 17 18 19 20 20 20 20 20
33 31 30 30 30 30 29 29 29 29 29 29 29 29 29 30 30 30 30 30 29 29 29 30 29 28 26 25 24 24 24 23 23 23 23 24 25 26 28 29 29 29 28 27 26 26 25 25 24 23 21 21 20 21 21 23 24 25 26 26 26 25 23 24 25 25 25 25 23 21 19 21 21 21 21 20 19 18 17 17 18 18 19 20 20 20
32 30 30 29 29 29 29 29 29 28 28 28 28 28 29 29 29 29 29 29 29 29 29 29 28 26 25 25 25 25 25 24 23 23 23 24 24 25 25 26 26 27 26 26 25 25 24 24 24 24 22 21 21 21 21 23 24 25 26 26 25 25 23 23 24 24 25 24 22 21 21 21 21 21 20 20 19 19 18 18 18 18 18 20 20 21
31 30 30 29 29 29 28 28 28 28 27 27 27 27 28 29 30 30 28 28 29 29 28 28 26 25 24 24 25 25 25 24 23 23 23 23 24 24 25 25 25 25 24 24 24 24 24 25 25 25 23 22 21 21 21 23 24 25 25 25 25 24 23 23 23 23 23 22 21 21 21 21 21 21 21 20 20 19 18 18 17 17 17 18 19 21
31 30 30 29 29 28 28 28 28 28 27 27 26 26 27 28 29 29 28 28 28 28 28 27 26 25 24 24 24 24 24 23 22 22 22 22 23 23 24 23 23 23 22 22 22 22 22 23 24 26 27 25 23 22 22 23 24 25 25 25 25 24 23 22 23 23 23 21 21 20 20 20 20 20 21 21 20 18 17 17 18 18 17 17 18 20
30 30 30 29 29 29 28 28 28 28 27 27 26 26 26 27 27 27 27 28 28 27 27 26 25 25 24 24 24 24 24 22 22 21 22 22 22 23 23 23 22 22 21 21 20 20 20 20 21 21 23 25 26 25 23 23 24 24 24 24 24 23 23 22 22 23 23 22 21 20 20 20 20 20 20 20 19 17 16 16 16 17 16 16 17 19